Weather History for Stuttgart, AR

Change the Weather History Date:

Saturday, April 5, 2014

  Actual Average Record
Temperature  
Mean Temperature 48 °F -  
Max Temperature 53 °F 67 °F 80 °F (2001)
Min Temperature 44 °F 49 °F 35 °F (2013)
Degree Days  
Heating Degree Days 16    
Moisture  
Dew Point 35 °F    
Average Humidity 59    
Maximum Humidity 76    
Minimum Humidity 47    
Precipitation  
Precipitation 0.00 in - - ()
Sea Level Pressure  
Sea Level Pressure 30.15 in    
Wind  
Wind Speed 10 mph (NE)    
Max Wind Speed 15 mph    
Max Gust Speed 18 mph    
Visibility 10 miles    
Events      
Averages and records for this station are not official NWS values.
T = Trace of Precipitation, MM = Missing Value Source: NWS Daily Summary

Daily Weather History Graph

Daily Weather History Graph

Search for Another Location

Airport:

Trip Planner

Search our weather history database for the weather conditions in past years. The results will help you decide how hot, cold, wet, or windy it might be!

Date:

Astronomy

Apr. 05, 2014 Rise Set
Actual Time 6:47 AM CDT 7:30 PM CDT
Civil Twilight 6:22 AM CDT 7:56 PM CDT
Nautical Twilight 5:52 AM CDT 8:26 PM CDT
Astronomical Twilight 5:21 AM CDT 8:57 PM CDT
Moon 11:04 AM CDT (4/5) 12:32 AM CDT (4/5)
Length of Visible Light 13h 33m
Length of Day
12h 42m
Waxing Crescent, 34% of the Moon is Illuminated
Apr 5
Waxing Crescent
Apr 7
First Quarter
Apr 15
Full
Apr 22
Last Quarter
Apr 29
New

Hourly Weather History & Observations

Time (CDT) Temp. Windchill Dew Point Humidity Pressure Visibility Wind Dir Wind Speed Gust Speed Precip Events Conditions
12:15 AM 50.0 °F - 35.6 °F 58% 30.14 in 10.0 mi NNE 9.2 mph - N/A   Clear
12:35 AM 48.2 °F - 35.6 °F 62% 30.15 in 10.0 mi NNE 10.4 mph - N/A   Clear
12:55 AM 48.2 °F - 35.6 °F 62% 30.15 in 10.0 mi North 10.4 mph - N/A   Clear
1:15 AM 48.2 °F - 35.6 °F 62% 30.15 in 10.0 mi NNE 15.0 mph 18.4 mph N/A   Clear
1:35 AM 48.2 °F - 35.6 °F 62% 30.15 in 10.0 mi NNE 11.5 mph - N/A   Clear
1:55 AM 48.2 °F - 35.6 °F 62% 30.16 in 10.0 mi NNE 11.5 mph - N/A   Clear
2:15 AM 48.2 °F - 35.6 °F 62% 30.16 in 10.0 mi NNE 11.5 mph - N/A   Clear
2:35 AM 46.4 °F 40.7 °F 35.6 °F 66% 30.16 in 10.0 mi North 12.7 mph - N/A   Clear
2:55 AM 46.4 °F 41.1 °F 35.6 °F 66% 30.16 in 10.0 mi North 11.5 mph - N/A   Clear
3:15 AM 46.4 °F 41.5 °F 35.6 °F 66% 30.16 in 10.0 mi North 10.4 mph - N/A   Clear
3:35 AM 44.6 °F 39.2 °F 35.6 °F 71% 30.17 in 10.0 mi North 10.4 mph - N/A   Clear
3:55 AM 44.6 °F 39.7 °F 35.6 °F 71% 30.16 in 10.0 mi North 9.2 mph - N/A   Clear
4:15 AM 44.6 °F 39.7 °F 35.6 °F 71% 30.16 in 10.0 mi North 9.2 mph - N/A   Clear
4:35 AM 44.6 °F 40.2 °F 35.6 °F 71% 30.17 in 10.0 mi North 8.1 mph - N/A   Clear
4:55 AM 44.6 °F 39.7 °F 35.6 °F 71% 30.16 in 10.0 mi North 9.2 mph - N/A   Clear
5:15 AM 44.6 °F 39.2 °F 33.8 °F 66% 30.16 in 10.0 mi North 10.4 mph - N/A   Clear
5:35 AM 44.6 °F 39.7 °F 35.6 °F 71% 30.17 in 10.0 mi NNE 9.2 mph - N/A   Clear
5:55 AM 44.6 °F 39.2 °F 33.8 °F 66% 30.17 in 10.0 mi NNE 10.4 mph - N/A   Clear
6:15 AM 44.6 °F 38.8 °F 33.8 °F 66% 30.17 in 10.0 mi NE 11.5 mph - N/A   Clear
6:35 AM 44.6 °F 39.7 °F 33.8 °F 66% 30.17 in 10.0 mi NE 9.2 mph - N/A   Clear
6:55 AM 44.6 °F 38.8 °F 33.8 °F 66% 30.18 in 10.0 mi NNE 11.5 mph - N/A   Clear
7:15 AM 44.6 °F 38.4 °F 33.8 °F 66% 30.18 in 10.0 mi NNE 12.7 mph - N/A   Clear
7:35 AM 44.6 °F 38.4 °F 33.8 °F 66% 30.19 in 10.0 mi NE 12.7 mph - N/A   Clear
7:55 AM 44.6 °F 38.8 °F 33.8 °F 66% 30.19 in 10.0 mi NE 11.5 mph - N/A   Clear
8:15 AM 46.4 °F 41.5 °F 33.8 °F 62% 30.20 in 10.0 mi NE 10.4 mph - N/A   Clear
8:35 AM 46.4 °F 41.1 °F 33.8 °F 62% 30.20 in 10.0 mi NE 11.5 mph - N/A   Clear
8:55 AM 46.4 °F 40.4 °F 33.8 °F 62% 30.20 in 10.0 mi ENE 13.8 mph - N/A   Clear
9:15 AM 48.2 °F - 32.0 °F 54% 30.21 in 10.0 mi ENE 11.5 mph - N/A   Clear
9:35 AM 48.2 °F - 30.2 °F 50% 30.21 in 10.0 mi ENE 15.0 mph - N/A   Clear
9:55 AM 48.2 °F - 30.2 °F 50% 30.21 in 10.0 mi ENE 15.0 mph - N/A   Clear
10:15 AM 48.2 °F - 32.0 °F 54% 30.21 in 10.0 mi NE 13.8 mph - N/A   Clear
10:55 AM 50.0 °F - 32.0 °F 50% 30.22 in 10.0 mi ENE 11.5 mph - N/A   Clear
11:15 AM 48.2 °F - 30.2 °F 50% 30.22 in 10.0 mi East 9.2 mph - N/A   Clear
11:35 AM 50.0 °F - 32.0 °F 50% 30.23 in 10.0 mi ENE 8.1 mph - N/A   Clear
11:55 AM 51.8 °F - 32.0 °F 47% 30.22 in 10.0 mi NE 4.6 mph - N/A   Clear
12:15 PM 50.0 °F - 32.0 °F 50% 30.22 in 10.0 mi North 4.6 mph - N/A   Clear
12:35 PM 51.8 °F - 33.8 °F 50% 30.22 in 10.0 mi Calm Calm - N/A   Clear
12:55 PM 51.8 °F - 33.8 °F 50% 30.21 in 10.0 mi NNE 9.2 mph - N/A   Clear
1:15 PM 51.8 °F - 33.8 °F 50% 30.20 in 10.0 mi North 9.2 mph - N/A   Clear
1:35 PM 51.8 °F - 33.8 °F 50% 30.18 in 10.0 mi North 12.7 mph - N/A   Clear
1:55 PM 53.6 °F - 33.8 °F 47% 30.17 in 10.0 mi NNE 11.5 mph 16.1 mph N/A   Clear
2:15 PM 53.6 °F - 33.8 °F 47% 30.16 in 10.0 mi North 10.4 mph - N/A   Clear
2:35 PM 53.6 °F - 35.6 °F 51% 30.15 in 10.0 mi NNE 12.7 mph - N/A   Clear
2:55 PM 53.6 °F - 33.8 °F 47% 30.15 in 10.0 mi North 8.1 mph - N/A   Clear
3:15 PM 53.6 °F - 35.6 °F 51% 30.13 in 10.0 mi NE 8.1 mph - N/A   Clear
3:35 PM 53.6 °F - 35.6 °F 51% 30.13 in 10.0 mi North 10.4 mph - N/A   Clear
3:55 PM 53.6 °F - 35.6 °F 51% 30.13 in 10.0 mi NE 9.2 mph - N/A   Clear
4:15 PM 53.6 °F - 33.8 °F 47% 30.13 in 10.0 mi East 6.9 mph - N/A   Clear
4:35 PM 53.6 °F - 35.6 °F 51% 30.12 in 10.0 mi ENE 10.4 mph - N/A   Clear
4:55 PM 53.6 °F - 35.6 °F 51% 30.11 in 10.0 mi East 10.4 mph - N/A   Clear
5:15 PM 53.6 °F - 33.8 °F 47% 30.11 in 10.0 mi ENE 10.4 mph - N/A   Clear
5:35 PM 53.6 °F - 33.8 °F 47% 30.10 in 10.0 mi NE 12.7 mph - N/A   Clear
5:55 PM 53.6 °F - 35.6 °F 51% 30.10 in 10.0 mi NE 12.7 mph - N/A   Clear
6:15 PM 51.8 °F - 35.6 °F 54% 30.09 in 10.0 mi NE 10.4 mph - N/A   Clear
6:35 PM 51.8 °F - 35.6 °F 54% 30.09 in 10.0 mi NE 11.5 mph - N/A   Clear
6:55 PM 51.8 °F - 35.6 °F 54% 30.09 in 10.0 mi NE 11.5 mph - N/A   Clear
7:15 PM 51.8 °F - 37.4 °F 58% 30.10 in 10.0 mi NE 6.9 mph - N/A   Clear
7:35 PM 51.8 °F - 37.4 °F 58% 30.09 in 10.0 mi NE 8.1 mph - N/A   Clear
7:55 PM 51.8 °F - 39.2 °F 62% 30.09 in 10.0 mi ENE 5.8 mph - N/A   Clear
8:15 PM 51.8 °F - 39.2 °F 62% 30.10 in 10.0 mi NNE 5.8 mph - N/A   Clear
8:35 PM 51.8 °F - 39.2 °F 62% 30.09 in 10.0 mi NE 6.9 mph - N/A   Clear
8:55 PM 51.8 °F - 39.2 °F 62% 30.09 in 10.0 mi NE 6.9 mph - N/A   Clear
9:15 PM 51.8 °F - 39.2 °F 62% 30.09 in 10.0 mi ENE 6.9 mph - N/A   Partly Cloudy
9:35 PM 50.0 °F - 39.2 °F 66% 30.10 in 10.0 mi NE 6.9 mph - N/A   Clear
9:55 PM 50.0 °F - 39.2 °F 66% 30.09 in 10.0 mi ENE 6.9 mph - N/A   Clear
10:15 PM 48.2 °F - 39.2 °F 71% 30.10 in 10.0 mi NE 5.8 mph - N/A   Partly Cloudy
10:35 PM 50.0 °F - 39.2 °F 66% 30.10 in 10.0 mi ENE 5.8 mph - N/A   Scattered Clouds
10:55 PM 51.8 °F - 39.2 °F 62% 30.09 in 10.0 mi ENE 5.8 mph - N/A   Clear
11:15 PM 50.0 °F - 39.2 °F 66% 30.09 in 10.0 mi ENE 5.8 mph - N/A   Clear
11:35 PM 48.2 °F - 39.2 °F 71% 30.10 in 10.0 mi NE 5.8 mph - N/A   Clear
11:55 PM 46.4 °F 42.4 °F 39.2 °F 76% 30.09 in 10.0 mi NNE 8.1 mph - N/A   Clear